EW1160 Weather Reports


Display with metric or nautical units.
time (UTC)temp
F
wind
direction
speed
MPH
gust
MPH
rain 1hr
in
rain 24hr
in
rain mn
in
humidity
%
barometer
mb
20260906074541 59 104 0.0 0.0 0.00 0.00 0.00 91 1014.4
20260906073021 59 105 0.0 0.0 0.00 0.00 0.00 91 1014.4
20260906071521 59 104 0.0 0.0 0.00 0.00 0.00 91 1014.3
20260906070003 59 104 0.0 0.0 0.00 0.00 0.00 91 1014.3
20260906064503 59 104 0.0 0.0 0.00 0.00 0.00 90 1014.3
20260906063044 60 104 0.0 0.0 0.00 0.00 0.00 91 1014.3
20260906061544 60 106 0.0 1.0 0.00 0.00 0.00 91 1014.4
20260906060027 60 104 0.0 0.0 0.00 0.00 0.00 90 1014.3
20260906054539 60 104 0.0 0.0 0.00 0.00 0.00 90 1014.2
20260906053012 60 104 0.0 0.0 0.00 0.00 0.00 90 1014.2
20260906051510 60 104 0.0 0.0 0.00 0.00 0.00 90 1014.0
20260906050009 61 104 0.0 0.0 0.00 0.00 0.00 90 1014.0
20260906044506 61 104 0.0 0.0 0.00 0.00 0.00 89 1014.0
20260906043013 62 104 0.0 0.0 0.00 0.00 0.00 89 1014.0
20260906041503 62 104 0.0 0.0 0.00 0.00 0.00 89 1013.8
20260906040136 63 104 0.0 1.0 0.00 0.00 0.00 88 1013.6
20260906034605 64 104 0.0 1.0 0.00 0.01 0.00 88 1013.6
20260906033052 64 102 0.0 2.0 0.00 0.01 0.00 88 1013.5
20260906031539 65 113 0.0 2.0 0.00 0.01 0.00 88 1013.6
20260906030020 66 53 0.0 4.0 0.00 0.01 0.00 87 1013.6
20260906024520 66 48 0.0 5.0 0.00 0.01 0.00 87 1013.5
20260906023002 67 8 1.0 7.0 0.00 0.01 0.00 87 1013.6
20260906021503 67 10 1.0 8.0 0.00 0.01 0.00 87 1013.7
20260906020043 67 11 4.0 8.0 0.00 0.01 0.00 87 1013.6
20260906014543 67 20 4.0 10.0 0.00 0.01 0.00 86 1013.4
20260906013028 66 21 4.0 10.0 0.00 0.01 0.00 86 1013.3
20260906011524 66 12 3.0 9.0 0.00 0.01 0.00 85 1013.3
20260906010007 66 8 2.0 10.0 0.00 0.01 0.00 83 1013.3
20260906004507 66 359 2.0 8.0 0.00 0.01 0.00 82 1013.1
20260906003049 67 354 3.0 10.0 0.00 0.01 0.00 81 1013.1
20260906001549 67 18 3.0 9.0 0.00 0.01 0.00 78 1013.2
20260906000031 67 21 4.0 8.0 0.00 0.01 0.00 74 1013.2
20260905234530 68 4 4.0 10.0 0.00 0.01 0.00 74 1013.2
20260905233018 68 21 1.0 12.0 0.00 0.01 0.00 75 1013.4
20260905231520 69 359 4.0 9.0 0.00 0.01 0.00 73 1013.2
20260905230017 70 15 4.0 10.0 0.00 0.01 0.00 71 1013.3
20260905224536 70 15 4.0 12.0 0.00 0.01 0.00 70 1013.2
20260905223020 70 12 3.0 11.0 0.00 0.01 0.00 70 1013.1
20260905221515 71 4 5.0 10.0 0.00 0.01 0.00 70 1013.1
20260905220014 71 4 5.0 10.0 0.00 0.01 0.00 72 1013.0
20260905214515 71 14 6.0 15.0 0.00 0.01 0.00 72 1012.9
20260905213113 72 31 3.0 14.0 0.00 0.01 0.00 73 1012.9
20260905211556 72 19 5.0 12.0 0.00 0.01 0.00 74 1013.0
20260905210101 72 41 2.0 10.0 0.00 0.01 0.00 79 1013.1
20260905204539 71 359 5.0 11.0 0.00 0.01 0.00 81 1012.9
20260905203038 71 347 3.0 14.0 0.00 0.01 0.00 83 1012.8
20260905201522 72 28 3.0 10.0 0.00 0.01 0.00 82 1012.9
20260905200025 71 48 2.0 10.0 0.00 0.01 0.00 84 1012.9
20260905194600 71 21 4.0 12.0 0.00 0.01 0.00 83 1012.9
20260905193100 71 4 4.0 12.0 0.00 0.01 0.00 82 1012.9
20260905191541 71 12 3.0 11.0 0.00 0.01 0.00 82 1012.9
20260905190041 71 310 3.0 9.0 0.00 0.01 0.00 81 1013.0
20260905184529 71 12 3.0 14.0 0.00 0.01 0.00 81 1013.0
20260905183025 71 11 4.0 13.0 0.00 0.01 0.00 80 1013.2
20260905181506 71 359 3.0 11.0 0.00 0.01 0.00 79 1013.4
20260905180007 71 337 3.0 9.0 0.00 0.01 0.00 80 1013.3
20260905174547 71 25 3.0 10.0 0.00 0.01 0.00 78 1013.0
20260905173104 71 10 2.0 10.0 0.00 0.01 0.00 79 1012.9
20260905171530 71 15 4.0 10.0 0.00 0.01 0.00 79 1013.1
20260905170029 71 339 4.0 9.0 0.00 0.01 0.00 78 1013.1
20260905164516 71 47 2.0 8.0 0.00 0.01 0.00 80 1013.0
20260905163011 71 12 3.0 9.0 0.00 0.01 0.00 78 1013.1
20260905161611 71 41 3.0 9.0 0.00 0.01 0.00 79 1013.2
20260905160058 72 14 2.0 7.0 0.00 0.01 0.00 75 1013.1
20260905154607 73 66 1.0 10.0 0.00 0.01 0.00 72 1013.0
20260905153055 73 149 0.0 4.0 0.00 0.01 0.00 69 1013.1
20260905151553 72 60 0.0 4.0 0.00 0.01 0.00 70 1013.0
20260905150054 72 116 0.0 3.0 0.00 0.01 0.00 73 1012.9
20260905144550 71 87 0.0 1.0 0.00 0.01 0.00 73 1013.0
20260905143047 71 108 0.0 2.0 0.00 0.01 0.00 76 1012.8
20260905141524 70 113 0.0 2.0 0.00 0.01 0.00 78 1012.6
20260905140023 69 99 0.0 3.0 0.00 0.01 0.00 79 1012.6
20260905134502 68 114 0.0 3.0 0.00 0.09 0.00 80 1012.7
20260905133105 67 85 0.0 2.0 0.00 0.09 0.00 85 1012.7
20260905131540 67 91 0.0 2.0 0.00 0.09 0.00 87 1012.8
20260905130037 66 122 0.0 2.0 0.00 0.09 0.00 88 1012.8
20260905124524 65 119 0.0 2.0 0.00 0.09 0.00 90 1012.7
20260905123021 64 116 0.0 1.0 0.00 0.09 0.00 91 1012.7
20260905121521 64 116 0.0 0.0 0.00 0.09 0.00 91 1012.5
20260905120021 64 115 0.0 1.0 0.00 0.09 0.00 91 1012.7
20260905114521 64 115 0.0 1.0 0.00 0.09 0.00 91 1012.6
20260905113019 63 115 0.0 0.0 0.00 0.09 0.00 91 1012.4
20260905111520 63 115 0.0 0.0 0.00 0.09 0.00 92 1012.3
20260905110017 63 115 0.0 1.0 0.00 0.09 0.00 92 1012.3
20260905104558 63 115 0.0 0.0 0.00 0.10 0.00 92 1012.3
20260905103103 63 115 0.0 0.0 0.00 0.10 0.00 92 1012.1
20260905101549 63 115 0.0 0.0 0.00 0.10 0.00 92 1012.1
20260905100109 63 115 0.0 1.0 0.00 0.10 0.00 92 1011.9
20260905094532 63 115 0.0 1.0 0.00 0.10 0.00 92 1012.0
20260905093027 64 115 0.0 1.0 0.00 0.10 0.00 92 1011.7
20260905091526 64 114 0.0 1.0 0.00 0.10 0.00 92 1011.5
20260905090026 64 113 0.0 0.0 0.00 0.10 0.00 92 1011.5
20260905084525 64 112 0.0 0.0 0.00 0.10 0.00 92 1011.7
20260905083024 64 112 0.0 0.0 0.00 0.10 0.00 92 1012.1
20260905081524 64 112 0.0 0.0 0.00 0.10 0.00 92 1011.7
20260905080023 64 112 0.0 0.0 0.00 0.10 0.00 92 1011.5